Location: Conflandey
(47.7287°N, 6.0456°E)
Time: 03:55:28
(UTC+00:00)

Orbus 7S? - Pass Details

Date: 24 October 2021
Orbit: 328 x 6409 km, 56.9° (Epoch: 01 November)

Event Time Altitude Azimuth Distance (km) Brightness Sun altitude
Rises 19:04:02 0° 308° (NW) 5,437 9.4 -26.3°
Reaches altitude 10° 19:08:47 10° 305° (NW) 3,527 8.2 -27.1°
Maximum altitude 19:15:52 48° 233° (SW) 926 4.5 -28.2°
Enters shadow 19:16:02 48° 225° (SW) 913 4.5 -28.3°
